Time,TemperatureF,DewpointF,PressureIn,WindDirection,WindDirectionDegrees,WindSpeedMPH,WindSpeedGustMPH,Humidity,HourlyPrecipIn,Conditions,Clouds,dailyrainin,SoftwareType,DateUTC
2013-02-17 00:00:00,51.3,0.0,30.08,WNW,296,5.0,12.0,0,0.00,,CLR,0.02,VWS V13.01,2013-02-17 05:00:00,
2013-02-17 00:05:00,51.3,0.0,30.07,WNW,286,4.0,10.0,0,0.00,,CLR,0.00,VWS V13.01,2013-02-17 05:05:00,
2013-02-17 00:10:00,51.3,0.0,30.08,NW,313,5.0,10.0,0,0.00,,CLR,0.00,VWS V13.01,2013-02-17 05:10:00,
2013-02-17 00:15:00,51.2,0.0,30.08,NW,304,1.0,10.0,0,0.00,,CLR,0.00,VWS V13.01,2013-02-17 05:15:00,
2013-02-17 00:20:00,51.2,0.0,30.08,WNW,300,5.0,10.0,0,0.00,,CLR,0.00,VWS V13.01,2013-02-17 05:20:00,
2013-02-17 00:25:00,51.2,0.0,30.07,WNW,296,6.0,10.0,0,0.00,,CLR,0.00,VWS V13.01,2013-02-17 05:25:00,
2013-02-17 00:30:00,51.2,0.0,30.08,WNW,297,3.0,10.0,0,0.00,,CLR,0.00,VWS V13.01,2013-02-17 05:30:00,
2013-02-17 00:35:00,51.2,0.0,30.08,NW,314,6.0,8.0,0,0.00,,CLR,0.00,VWS V13.01,2013-02-17 05:35:00,
2013-02-17 00:40:00,51.3,0.0,30.08,WNW,294,1.0,9.0,0,0.00,,CLR,0.00,VWS V13.01,2013-02-17 05:40:00,
2013-02-17 00:45:00,51.3,0.0,30.08,WNW,286,4.0,11.0,0,0.00,,CLR,0.00,VWS V13.01,2013-02-17 05:45:00,
2013-02-17 00:50:00,51.3,0.0,30.08,WNW,294,3.0,11.0,0,0.00,,CLR,0.00,VWS V13.01,2013-02-17 05:50:00,
2013-02-17 00:55:00,51.3,0.0,30.08,WNW,301,3.0,11.0,0,0.00,,CLR,0.00,VWS V13.01,2013-02-17 05:55:00,
2013-02-17 01:00:00,51.4,0.0,30.08,WNW,300,1.0,11.0,0,0.00,,CLR,0.00,VWS V13.01,2013-02-17 06:00:00,
2013-02-17 01:05:00,51.3,0.0,30.08,WNW,294,5.0,8.0,0,0.00,,CLR,0.00,VWS V13.01,2013-02-17 06:05:00,
2013-02-17 01:10:00,51.3,0.0,30.08,NW,317,3.0,11.0,0,0.00,,CLR,0.00,VWS V13.01,2013-02-17 06:10:00,
2013-02-17 01:15:00,51.3,0.0,30.08,NNW,336,4.0,11.0,0,0.00,,CLR,0.00,VWS V13.01,2013-02-17 06:15:00,
2013-02-17 01:20:00,51.2,0.0,30.08,WNW,298,5.0,11.0,0,0.00,,CLR,0.00,VWS V13.01,2013-02-17 06:20:00,
2013-02-17 01:25:00,51.2,0.0,30.08,NW,308,6.0,11.0,0,0.00,,CLR,0.00,VWS V13.01,2013-02-17 06:25:00,
2013-02-17 01:30:00,51.1,0.0,30.09,NNW,331,5.0,11.0,0,0.00,,CLR,0.00,VWS V13.01,2013-02-17 06:30:00,
2013-02-17 01:35:00,51.0,0.0,30.09,NNW,328,4.0,7.0,0,0.00,,CLR,0.00,VWS V13.01,2013-02-17 06:35:00,
2013-02-17 01:40:00,50.9,0.0,30.08,NW,326,5.0,7.0,0,0.00,,CLR,0.00,VWS V13.01,2013-02-17 06:40:00,
2013-02-17 01:45:00,50.9,0.0,30.09,NW,313,4.0,8.0,0,0.00,,CLR,0.00,VWS V13.01,2013-02-17 06:45:00,
2013-02-17 01:50:00,50.8,0.0,30.08,NW,326,1.0,9.0,0,0.00,,CLR,0.00,VWS V13.01,2013-02-17 06:50:00,
2013-02-17 01:55:00,50.7,0.0,30.08,NW,317,4.0,9.0,0,0.00,,CLR,0.00,VWS V13.01,2013-02-17 06:55:00,
2013-02-17 02:00:00,50.6,0.0,30.08,NW,307,5.0,10.0,0,0.00,,CLR,0.00,VWS V13.01,2013-02-17 07:00:00,
2013-02-17 02:05:00,50.6,0.0,30.08,NW,311,2.0,9.0,0,0.00,,CLR,0.00,VWS V13.01,2013-02-17 07:05:00,
2013-02-17 02:10:00,50.6,0.0,30.08,WNW,298,2.0,9.0,0,0.00,,CLR,0.00,VWS V13.01,2013-02-17 07:10:00,
2013-02-17 02:15:00,50.5,0.0,30.08,WNW,295,4.0,10.0,0,0.00,,CLR,0.00,VWS V13.01,2013-02-17 07:15:00,
2013-02-17 02:20:00,50.4,0.0,30.08,WNW,288,3.0,10.0,0,0.00,,CLR,0.00,VWS V13.01,2013-02-17 07:20:00,
2013-02-17 02:25:00,50.3,0.0,30.08,WNW,298,7.0,10.0,0,0.00,,CLR,0.00,VWS V13.01,2013-02-17 07:25:00,
2013-02-17 02:30:00,50.2,0.0,30.08,NW,316,4.0,10.0,0,0.00,,CLR,0.00,VWS V13.01,2013-02-17 07:30:00,
2013-02-17 02:35:00,49.9,0.0,30.08,NW,306,2.0,9.0,0,0.00,,CLR,0.00,VWS V13.01,2013-02-17 07:35:00,
2013-02-17 02:40:00,49.7,0.0,30.08,WNW,299,7.0,9.0,0,0.00,,CLR,0.00,VWS V13.01,2013-02-17 07:40:00,
2013-02-17 02:45:00,49.5,0.0,30.08,WNW,290,5.0,10.0,0,0.00,,CLR,0.00,VWS V13.01,2013-02-17 07:45:00,
2013-02-17 02:50:00,49.4,0.0,30.08,WNW,303,4.0,11.0,0,0.00,,CLR,0.00,VWS V13.01,2013-02-17 07:50:00,
2013-02-17 02:55:00,49.1,0.0,30.08,NW,321,1.0,11.0,0,0.00,,CLR,0.00,VWS V13.01,2013-02-17 07:55:00,
2013-02-17 03:00:00,48.9,0.0,30.08,WNW,302,2.0,11.0,0,0.00,,CLR,0.00,VWS V13.01,2013-02-17 08:00:00,
2013-02-17 03:05:00,48.8,0.0,30.08,WNW,297,2.0,10.0,0,0.00,,CLR,0.00,VWS V13.01,2013-02-17 08:05:00,
2013-02-17 03:10:00,48.7,0.0,30.08,NW,312,3.0,10.0,0,0.00,,CLR,0.00,VWS V13.01,2013-02-17 08:10:00,
2013-02-17 03:15:00,48.5,0.0,30.08,NW,307,2.0,10.0,0,0.00,,CLR,0.00,VWS V13.01,2013-02-17 08:15:00,
2013-02-17 03:20:00,48.3,0.0,30.09,NNW,340,8.0,10.0,0,0.00,,CLR,0.00,VWS V13.01,2013-02-17 08:20:00,
2013-02-17 03:25:00,48.3,0.0,30.09,NW,317,13.0,16.0,0,0.00,,CLR,0.00,VWS V13.01,2013-02-17 08:25:00,
2013-02-17 03:30:00,48.7,-19.3,30.09,North,360,7.0,16.0,5,0.00,,CLR,0.00,VWS V13.01,2013-02-17 08:30:00,
2013-02-17 03:35:00,51.4,24.0,30.09,North,5,14.0,14.0,34,0.00,,CLR,0.00,VWS V13.01,2013-02-17 08:35:00,
2013-02-17 03:40:00,52.1,29.7,30.10,NW,314,3.0,14.0,42,0.00,,CLR,0.00,VWS V13.01,2013-02-17 08:40:00,
2013-02-17 03:45:00,52.0,30.2,30.10,NNW,335,2.0,14.0,43,0.00,,CLR,0.00,VWS V13.01,2013-02-17 08:45:00,
2013-02-17 03:50:00,51.9,29.5,30.10,NNW,347,3.0,14.0,42,0.00,,CLR,0.00,VWS V13.01,2013-02-17 08:50:00,
2013-02-17 03:55:00,51.5,27.4,30.10,NNW,331,3.0,14.0,39,0.00,,CLR,0.00,VWS V13.01,2013-02-17 08:55:00,
2013-02-17 04:00:00,51.3,27.2,30.11,NNW,330,10.0,14.0,39,0.00,,CLR,0.00,VWS V13.01,2013-02-17 09:00:00,
2013-02-17 04:05:00,51.1,27.6,30.11,NNW,338,6.0,13.0,40,0.00,,CLR,0.00,VWS V13.01,2013-02-17 09:05:00,
2013-02-17 04:10:00,50.9,27.5,30.11,North,360,4.0,13.0,40,0.00,,CLR,0.00,VWS V13.01,2013-02-17 09:10:00,
2013-02-17 04:15:00,50.7,27.3,30.11,NNW,348,4.0,13.0,40,0.00,,CLR,0.00,VWS V13.01,2013-02-17 09:15:00,
2013-02-17 04:20:00,50.5,27.7,30.11,NW,325,7.0,13.0,41,0.00,,CLR,0.00,VWS V13.01,2013-02-17 09:20:00,
2013-02-17 04:25:00,50.4,28.2,30.12,NNE,19,10.0,13.0,42,0.00,,CLR,0.00,VWS V13.01,2013-02-17 09:25:00,
2013-02-17 04:30:00,50.2,28.6,30.12,North,355,4.0,13.0,43,0.00,,CLR,0.00,VWS V13.01,2013-02-17 09:30:00,
2013-02-17 04:35:00,50.0,29.5,30.12,NNW,332,5.0,13.0,45,0.00,,CLR,0.00,VWS V13.01,2013-02-17 09:35:00,
2013-02-17 04:40:00,49.9,30.0,30.12,North,355,0.0,14.0,46,0.00,,CLR,0.00,VWS V13.01,2013-02-17 09:40:00,
2013-02-17 04:45:00,49.7,29.8,30.13,North,5,10.0,15.0,46,0.00,,CLR,0.00,VWS V13.01,2013-02-17 09:45:00,
2013-02-17 04:50:00,49.6,29.7,30.13,North,360,5.0,15.0,46,0.00,,CLR,0.00,VWS V13.01,2013-02-17 09:50:00,
2013-02-17 04:55:00,49.4,29.0,30.13,North,350,11.0,15.0,45,0.00,,CLR,0.00,VWS V13.01,2013-02-17 09:55:00,
2013-02-17 05:00:00,49.3,28.3,30.13,NNE,19,2.0,15.0,44,0.00,,CLR,0.00,VWS V13.01,2013-02-17 10:00:00,
2013-02-17 05:05:00,49.2,27.7,30.14,NW,319,12.0,13.0,43,0.00,,CLR,0.00,VWS V13.01,2013-02-17 10:05:00,
2013-02-17 05:10:00,49.1,28.1,30.14,North,360,3.0,16.0,44,0.00,,CLR,0.00,VWS V13.01,2013-02-17 10:10:00,
2013-02-17 05:15:00,48.9,28.0,30.14,NW,308,2.0,16.0,44,0.00,,CLR,0.00,VWS V13.01,2013-02-17 10:15:00,
2013-02-17 05:20:00,48.8,27.3,30.14,North,360,3.0,16.0,43,0.00,,CLR,0.00,VWS V13.01,2013-02-17 10:20:00,
2013-02-17 05:25:00,48.6,26.0,30.15,NNW,345,2.0,16.0,41,0.00,,CLR,0.00,VWS V13.01,2013-02-17 10:25:00,
2013-02-17 05:30:00,48.2,25.6,30.15,North,360,7.0,16.0,41,0.00,,CLR,0.00,VWS V13.01,2013-02-17 10:30:00,
2013-02-17 05:35:00,48.0,24.9,30.15,North,355,6.0,8.0,40,0.00,,CLR,0.00,VWS V13.01,2013-02-17 10:35:00,
2013-02-17 05:40:00,47.8,25.8,30.16,North,9,6.0,16.0,42,0.00,,CLR,0.00,VWS V13.01,2013-02-17 10:40:00,
2013-02-17 05:45:00,47.7,28.0,30.16,North,350,5.0,16.0,46,0.00,,CLR,0.00,VWS V13.01,2013-02-17 10:45:00,
2013-02-17 05:50:00,47.6,28.9,30.16,North,9,10.0,16.0,48,0.00,,CLR,0.00,VWS V13.01,2013-02-17 10:50:00,
2013-02-17 05:55:00,47.4,29.2,30.17,NNW,335,4.0,16.0,49,0.00,,CLR,0.00,VWS V13.01,2013-02-17 10:55:00,
2013-02-17 06:00:00,47.2,29.0,30.17,North,349,6.0,16.0,49,0.00,,CLR,0.00,VWS V13.01,2013-02-17 11:00:00,
2013-02-17 06:05:00,47.1,29.4,30.17,NNE,26,5.0,11.0,50,0.00,,CLR,0.00,VWS V13.01,2013-02-17 11:05:00,
2013-02-17 06:10:00,46.9,29.2,30.17,North,349,3.0,13.0,50,0.00,,CLR,0.00,VWS V13.01,2013-02-17 11:10:00,
2013-02-17 06:15:00,46.8,29.2,30.17,North,360,11.0,13.0,50,0.00,,CLR,0.00,VWS V13.01,2013-02-17 11:15:00,
2013-02-17 06:20:00,46.6,29.5,30.18,NNW,329,5.0,13.0,51,0.00,,CLR,0.00,VWS V13.01,2013-02-17 11:20:00,
2013-02-17 06:25:00,46.4,29.3,30.18,North,360,8.0,13.0,51,0.00,,CLR,0.00,VWS V13.01,2013-02-17 11:25:00,
2013-02-17 06:30:00,46.2,29.1,30.18,North,5,2.0,13.0,51,0.00,,CLR,0.00,VWS V13.01,2013-02-17 11:30:00,
2013-02-17 06:35:00,46.1,28.5,30.18,NNE,29,4.0,12.0,50,0.00,,CLR,0.00,VWS V13.01,2013-02-17 11:35:00,
2013-02-17 06:40:00,46.0,27.9,30.19,North,350,3.0,12.0,49,0.00,,CLR,0.00,VWS V13.01,2013-02-17 11:40:00,
2013-02-17 06:45:00,45.8,28.2,30.19,NNE,15,1.0,12.0,50,0.00,,CLR,0.00,VWS V13.01,2013-02-17 11:45:00,
2013-02-17 06:50:00,45.7,27.6,30.19,North,351,5.0,12.0,49,0.00,,CLR,0.00,VWS V13.01,2013-02-17 11:50:00,
2013-02-17 06:55:00,45.5,27.5,30.19,NNW,336,4.0,12.0,49,0.00,,CLR,0.00,VWS V13.01,2013-02-17 11:55:00,
2013-02-17 07:00:00,45.3,26.3,30.19,North,355,5.0,12.0,47,0.00,,CLR,0.00,VWS V13.01,2013-02-17 12:00:00,
2013-02-17 07:05:00,45.2,25.7,30.19,North,349,6.0,11.0,46,0.00,,CLR,0.00,VWS V13.01,2013-02-17 12:05:00,
2013-02-17 07:10:00,45.2,25.7,30.19,NNW,340,5.0,12.0,46,0.00,,CLR,0.00,VWS V13.01,2013-02-17 12:10:00,
2013-02-17 07:15:00,45.2,25.7,30.20,North,355,8.0,13.0,46,0.00,,CLR,0.00,VWS V13.01,2013-02-17 12:15:00,
2013-02-17 07:20:00,45.2,25.7,30.20,North,355,7.0,13.0,46,0.00,,CLR,0.00,VWS V13.01,2013-02-17 12:20:00,
2013-02-17 07:25:00,45.1,25.6,30.20,NW,321,12.0,13.0,46,0.00,,CLR,0.00,VWS V13.01,2013-02-17 12:25:00,
2013-02-17 07:30:00,45.2,25.1,30.20,NNE,20,6.0,14.0,45,0.00,,CLR,0.00,VWS V13.01,2013-02-17 12:30:00,
2013-02-17 07:35:00,45.3,25.2,30.21,NNE,20,14.0,14.0,45,0.00,,CLR,0.00,VWS V13.01,2013-02-17 12:35:00,
2013-02-17 07:40:00,45.4,24.8,30.21,NNW,344,8.0,14.0,44,0.00,,CLR,0.00,VWS V13.01,2013-02-17 12:40:00,
2013-02-17 07:45:00,45.5,25.9,30.21,NNW,341,5.0,14.0,46,0.00,,CLR,0.00,VWS V13.01,2013-02-17 12:45:00,
2013-02-17 07:50:00,45.7,25.6,30.21,NNW,339,2.0,14.0,45,0.00,,CLR,0.00,VWS V13.01,2013-02-17 12:50:00,
2013-02-17 07:55:00,46.0,25.9,30.22,NNW,341,4.0,14.0,45,0.00,,CLR,0.00,VWS V13.01,2013-02-17 12:55:00,
2013-02-17 08:00:00,46.1,24.9,30.22,NNW,332,7.0,14.0,43,0.00,,CLR,0.00,VWS V13.01,2013-02-17 13:00:00,
2013-02-17 08:05:00,46.2,25.0,30.23,NNW,344,4.0,13.0,43,0.00,,CLR,0.00,VWS V13.01,2013-02-17 13:05:00,
2013-02-17 08:10:00,46.4,25.1,30.23,North,360,6.0,13.0,43,0.00,,CLR,0.00,VWS V13.01,2013-02-17 13:10:00,
2013-02-17 08:15:00,46.6,24.8,30.23,NNE,16,8.0,14.0,42,0.00,,CLR,0.00,VWS V13.01,2013-02-17 13:15:00,
2013-02-17 08:20:00,46.9,25.0,30.23,NNW,335,6.0,14.0,42,0.00,,CLR,0.00,VWS V13.01,2013-02-17 13:20:00,
2013-02-17 08:25:00,47.2,24.7,30.24,NNW,346,5.0,14.0,41,0.00,,CLR,0.00,VWS V13.01,2013-02-17 13:25:00,
2013-02-17 08:30:00,47.4,24.3,30.24,NNW,339,6.0,14.0,40,0.00,,CLR,0.00,VWS V13.01,2013-02-17 13:30:00,
2013-02-17 08:35:00,47.5,24.4,30.24,NW,325,5.0,18.0,40,0.00,,CLR,0.00,VWS V13.01,2013-02-17 13:35:00,
2013-02-17 08:40:00,47.6,23.3,30.24,NNW,333,9.0,18.0,38,0.00,,CLR,0.00,VWS V13.01,2013-02-17 13:40:00,
2013-02-17 08:45:00,47.8,23.4,30.24,NW,323,7.0,18.0,38,0.00,,CLR,0.00,VWS V13.01,2013-02-17 13:45:00,
2013-02-17 08:50:00,48.0,23.0,30.25,NNE,13,3.0,18.0,37,0.00,,CLR,0.00,VWS V13.01,2013-02-17 13:50:00,
2013-02-17 08:55:00,48.2,23.8,30.25,North,355,12.0,18.0,38,0.00,,CLR,0.00,VWS V13.01,2013-02-17 13:55:00,
2013-02-17 09:00:00,48.6,22.9,30.25,North,355,5.0,18.0,36,0.00,,CLR,0.00,VWS V13.01,2013-02-17 14:00:00,
2013-02-17 09:05:00,48.8,22.4,30.25,North,355,1.0,16.0,35,0.00,,CLR,0.00,VWS V13.01,2013-02-17 14:05:00,
2013-02-17 09:10:00,49.1,22.6,30.25,NNE,25,6.0,16.0,35,0.00,,CLR,0.00,VWS V13.01,2013-02-17 14:10:00,
2013-02-17 09:15:00,49.1,22.6,30.26,North,360,11.0,16.0,35,0.00,,CLR,0.00,VWS V13.01,2013-02-17 14:15:00,
2013-02-17 09:20:00,49.2,22.7,30.26,North,360,2.0,18.0,35,0.00,,CLR,0.00,VWS V13.01,2013-02-17 14:20:00,
2013-02-17 09:25:00,49.9,22.7,30.26,NNW,334,6.0,18.0,34,0.00,,CLR,0.00,VWS V13.01,2013-02-17 14:25:00,
2013-02-17 09:30:00,49.9,22.7,30.26,North,360,4.0,18.0,34,0.00,,CLR,0.00,VWS V13.01,2013-02-17 14:30:00,
2013-02-17 09:35:00,50.2,22.9,30.26,North,10,6.0,12.0,34,0.00,,CLR,0.00,VWS V13.01,2013-02-17 14:35:00,
2013-02-17 09:40:00,50.6,23.3,30.26,North,355,7.0,17.0,34,0.00,,CLR,0.00,VWS V13.01,2013-02-17 14:40:00,
2013-02-17 09:45:00,50.8,22.8,30.26,NNW,329,5.0,18.0,33,0.00,,CLR,0.00,VWS V13.01,2013-02-17 14:45:00,
2013-02-17 09:50:00,51.3,23.2,30.27,NNW,347,9.0,18.0,33,0.00,,CLR,0.00,VWS V13.01,2013-02-17 14:50:00,
2013-02-17 09:55:00,51.3,22.5,30.27,NW,323,4.0,18.0,32,0.00,,CLR,0.00,VWS V13.01,2013-02-17 14:55:00,
2013-02-17 10:00:00,51.4,21.8,30.27,NW,313,11.0,18.0,31,0.00,,CLR,0.00,VWS V13.01,2013-02-17 15:00:00,
2013-02-17 10:05:00,51.5,22.6,30.27,NNW,336,4.0,12.0,32,0.00,,CLR,0.00,VWS V13.01,2013-02-17 15:05:00,
2013-02-17 10:10:00,51.8,22.1,30.27,North,5,3.0,16.0,31,0.00,,CLR,0.00,VWS V13.01,2013-02-17 15:10:00,
2013-02-17 10:15:00,52.2,21.7,30.27,NNE,28,8.0,16.0,30,0.00,,CLR,0.00,VWS V13.01,2013-02-17 15:15:00,
2013-02-17 10:20:00,52.3,22.6,30.27,NNW,342,3.0,16.0,31,0.00,,CLR,0.00,VWS V13.01,2013-02-17 15:20:00,
2013-02-17 10:25:00,52.6,22.9,30.27,North,360,5.0,21.0,31,0.00,,CLR,0.00,VWS V13.01,2013-02-17 15:25:00,
2013-02-17 10:30:00,53.2,23.4,30.27,NNW,333,9.0,21.0,31,0.00,,CLR,0.00,VWS V13.01,2013-02-17 15:30:00,
2013-02-17 10:35:00,52.9,21.5,30.28,NW,323,5.0,16.0,29,0.00,,CLR,0.00,VWS V13.01,2013-02-17 15:35:00,
2013-02-17 10:40:00,53.0,21.6,30.28,WNW,296,2.0,16.0,29,0.00,,CLR,0.00,VWS V13.01,2013-02-17 15:40:00,
2013-02-17 10:45:00,53.1,22.5,30.28,NNW,338,7.0,17.0,30,0.00,,CLR,0.00,VWS V13.01,2013-02-17 15:45:00,
2013-02-17 10:50:00,53.2,21.8,30.28,NNW,328,4.0,17.0,29,0.00,,CLR,0.00,VWS V13.01,2013-02-17 15:50:00,
2013-02-17 10:55:00,53.8,22.3,30.28,North,5,5.0,17.0,29,0.00,,CLR,0.00,VWS V13.01,2013-02-17 15:55:00,
2013-02-17 11:00:00,54.0,21.6,30.28,WNW,297,7.0,17.0,28,0.00,,CLR,0.00,VWS V13.01,2013-02-17 16:00:00,
2013-02-17 11:05:00,53.8,22.3,30.28,North,355,6.0,15.0,29,0.00,,FEW050,0.00,VWS V13.01,2013-02-17 16:05:00,
2013-02-17 11:10:00,54.4,22.8,30.27,NNW,346,13.0,15.0,29,0.00,,FEW050,0.00,VWS V13.01,2013-02-17 16:10:00,
2013-02-17 11:15:00,54.4,22.0,30.27,North,360,5.0,15.0,28,0.00,,FEW050,0.00,VWS V13.01,2013-02-17 16:15:00,
2013-02-17 11:20:00,55.0,22.5,30.27,NNW,331,5.0,15.0,28,0.00,,FEW050,0.00,VWS V13.01,2013-02-17 16:20:00,
2013-02-17 11:25:00,55.0,24.2,30.28,North,351,5.0,15.0,30,0.00,,FEW050,0.00,VWS V13.01,2013-02-17 16:25:00,
2013-02-17 11:30:00,55.3,22.8,30.27,NNW,342,3.0,15.0,28,0.00,,FEW050,0.00,VWS V13.01,2013-02-17 16:30:00,
2013-02-17 11:35:00,55.3,21.9,30.27,North,360,14.0,14.0,27,0.00,,FEW050,0.00,VWS V13.01,2013-02-17 16:35:00,
2013-02-17 11:40:00,55.1,21.7,30.27,NW,321,12.0,14.0,27,0.00,,FEW050,0.00,VWS V13.01,2013-02-17 16:40:00,
2013-02-17 11:45:00,55.1,22.6,30.27,NNE,24,4.0,14.0,28,0.00,,FEW050,0.00,VWS V13.01,2013-02-17 16:45:00,
2013-02-17 11:50:00,55.9,24.9,30.27,NW,315,3.0,14.0,30,0.00,,FEW050,0.00,VWS V13.01,2013-02-17 16:50:00,
2013-02-17 11:55:00,55.9,22.4,30.27,NNW,346,6.0,16.0,27,0.00,,FEW050,0.00,VWS V13.01,2013-02-17 16:55:00,
2013-02-17 12:00:00,56.0,23.4,30.27,WNW,292,9.0,16.0,28,0.00,,FEW050,0.00,VWS V13.01,2013-02-17 17:00:00,
2013-02-17 12:05:00,56.0,24.2,30.26,North,360,0.0,12.0,29,0.00,,CLR,0.00,VWS V13.01,2013-02-17 17:05:00,
2013-02-17 12:10:00,56.5,22.9,30.26,NNW,327,10.0,17.0,27,0.00,,CLR,0.00,VWS V13.01,2013-02-17 17:10:00,
2013-02-17 12:15:00,56.5,22.9,30.26,North,355,3.0,17.0,27,0.00,,CLR,0.00,VWS V13.01,2013-02-17 17:15:00,
2013-02-17 12:20:00,57.0,23.4,30.26,NNW,333,5.0,17.0,27,0.00,,CLR,0.00,VWS V13.01,2013-02-17 17:20:00,
2013-02-17 12:25:00,56.9,24.1,30.26,North,360,6.0,17.0,28,0.00,,CLR,0.00,VWS V13.01,2013-02-17 17:25:00,
2013-02-17 12:30:00,56.9,23.3,30.26,North,5,7.0,17.0,27,0.00,,CLR,0.00,VWS V13.01,2013-02-17 17:30:00,
2013-02-17 12:35:00,57.3,22.7,30.26,NW,321,4.0,8.0,26,0.00,,CLR,0.00,VWS V13.01,2013-02-17 17:35:00,
2013-02-17 12:40:00,57.2,23.5,30.26,NNW,336,2.0,11.0,27,0.00,,CLR,0.00,VWS V13.01,2013-02-17 17:40:00,
2013-02-17 12:45:00,57.6,23.9,30.26,NNW,333,7.0,11.0,27,0.00,,CLR,0.00,VWS V13.01,2013-02-17 17:45:00,
2013-02-17 12:50:00,57.8,24.1,30.26,WNW,302,13.0,13.0,27,0.00,,CLR,0.00,VWS V13.01,2013-02-17 17:50:00,
2013-02-17 12:55:00,57.8,24.1,30.26,NNE,14,4.0,17.0,27,0.00,,CLR,0.00,VWS V13.01,2013-02-17 17:55:00,
2013-02-17 13:00:00,57.9,23.2,30.26,NNW,342,10.0,17.0,26,0.00,,CLR,0.00,VWS V13.01,2013-02-17 18:00:00,
2013-02-17 13:05:00,57.8,24.1,30.25,North,351,7.0,15.0,27,0.00,,FEW050,0.00,VWS V13.01,2013-02-17 18:05:00,
2013-02-17 13:10:00,58.1,24.3,30.25,NW,306,5.0,15.0,27,0.00,,FEW050,0.00,VWS V13.01,2013-02-17 18:10:00,
2013-02-17 13:15:00,58.0,23.3,30.25,North,351,4.0,15.0,26,0.00,,FEW050,0.00,VWS V13.01,2013-02-17 18:15:00,
2013-02-17 13:20:00,57.8,23.2,30.25,NNW,331,2.0,15.0,26,0.00,,FEW050,0.00,VWS V13.01,2013-02-17 18:20:00,
2013-02-17 13:25:00,58.3,24.5,30.25,WNW,294,7.0,15.0,27,0.00,,FEW050,0.00,VWS V13.01,2013-02-17 18:25:00,
2013-02-17 13:30:00,58.6,24.8,30.25,North,360,0.0,15.0,27,0.00,,FEW050,0.00,VWS V13.01,2013-02-17 18:30:00,
2013-02-17 13:35:00,58.2,23.5,30.25,WNW,282,12.0,16.0,26,0.00,,FEW050,0.00,VWS V13.01,2013-02-17 18:35:00,
2013-02-17 13:40:00,57.6,23.0,30.24,NNW,333,4.0,16.0,26,0.00,,FEW050,0.00,VWS V13.01,2013-02-17 18:40:00,
2013-02-17 13:45:00,58.0,24.2,30.25,North,360,8.0,16.0,27,0.00,,FEW050,0.00,VWS V13.01,2013-02-17 18:45:00,
2013-02-17 13:50:00,58.7,23.9,30.24,NNW,330,1.0,16.0,26,0.00,,FEW050,0.00,VWS V13.01,2013-02-17 18:50:00,
2013-02-17 13:55:00,59.0,24.2,30.24,NNW,332,9.0,16.0,26,0.00,,FEW050,0.00,VWS V13.01,2013-02-17 18:55:00,
2013-02-17 14:00:00,59.3,24.4,30.24,North,355,6.0,16.0,26,0.00,,FEW050,0.00,VWS V13.01,2013-02-17 19:00:00,
2013-02-17 14:05:00,59.2,24.4,30.24,NNW,331,5.0,10.0,26,0.00,,FEW050,0.00,VWS V13.01,2013-02-17 19:05:00,
2013-02-17 14:10:00,59.4,24.5,30.24,NNW,345,5.0,14.0,26,0.00,,FEW050,0.00,VWS V13.01,2013-02-17 19:10:00,
2013-02-17 14:15:00,59.2,25.3,30.23,NNW,327,8.0,14.0,27,0.00,,FEW050,0.00,VWS V13.01,2013-02-17 19:15:00,
2013-02-17 14:20:00,59.5,24.6,30.24,NNW,338,5.0,14.0,26,0.00,,FEW050,0.00,VWS V13.01,2013-02-17 19:20:00,
2013-02-17 14:25:00,59.2,23.4,30.24,North,5,0.0,14.0,25,0.00,,FEW050,0.00,VWS V13.01,2013-02-17 19:25:00,
2013-02-17 14:30:00,59.6,24.7,30.23,NNW,337,0.0,14.0,26,0.00,,FEW050,0.00,VWS V13.01,2013-02-17 19:30:00,
2013-02-17 14:35:00,59.8,24.9,30.23,NNE,24,6.0,11.0,26,0.00,,FEW050,0.00,VWS V13.01,2013-02-17 19:35:00,
2013-02-17 14:40:00,59.5,23.7,30.23,North,5,4.0,11.0,25,0.00,,FEW050,0.00,VWS V13.01,2013-02-17 19:40:00,
2013-02-17 14:45:00,59.6,25.6,30.23,NW,307,1.0,11.0,27,0.00,,FEW050,0.00,VWS V13.01,2013-02-17 19:45:00,
2013-02-17 14:50:00,60.2,25.2,30.23,NNE,19,1.0,11.0,26,0.00,,FEW050,0.00,VWS V13.01,2013-02-17 19:50:00,
2013-02-17 14:55:00,59.8,24.9,30.23,NW,304,7.0,11.0,26,0.00,,FEW050,0.00,VWS V13.01,2013-02-17 19:55:00,
2013-02-17 15:00:00,59.6,23.8,30.23,NNE,19,3.0,11.0,25,0.00,,FEW050,0.00,VWS V13.01,2013-02-17 20:00:00,
2013-02-17 15:05:00,59.7,24.8,30.23,NNW,337,0.0,3.0,26,0.00,,CLR,0.00,VWS V13.01,2013-02-17 20:05:00,
2013-02-17 15:10:00,59.7,24.8,30.23,NW,306,4.0,10.0,26,0.00,,CLR,0.00,VWS V13.01,2013-02-17 20:10:00,
2013-02-17 15:15:00,59.9,25.0,30.23,NNW,344,0.0,10.0,26,0.00,,CLR,0.00,VWS V13.01,2013-02-17 20:15:00,
2013-02-17 15:20:00,60.2,25.2,30.23,North,355,0.0,10.0,26,0.00,,CLR,0.00,VWS V13.01,2013-02-17 20:20:00,
2013-02-17 15:25:00,60.1,25.1,30.23,NE,40,0.0,10.0,26,0.00,,CLR,0.00,VWS V13.01,2013-02-17 20:25:00,
2013-02-17 15:30:00,60.2,26.1,30.23,NW,322,3.0,10.0,27,0.00,,CLR,0.00,VWS V13.01,2013-02-17 20:30:00,
2013-02-17 15:35:00,60.4,25.4,30.23,North,5,0.0,6.0,26,0.00,,CLR,0.00,VWS V13.01,2013-02-17 20:35:00,
2013-02-17 15:40:00,60.3,25.3,30.23,NW,304,1.0,8.0,26,0.00,,CLR,0.00,VWS V13.01,2013-02-17 20:40:00,
2013-02-17 15:45:00,60.4,25.4,30.24,North,11,0.0,8.0,26,0.00,,CLR,0.00,VWS V13.01,2013-02-17 20:45:00,
2013-02-17 15:50:00,60.3,24.4,30.24,North,5,0.0,9.0,25,0.00,,CLR,0.00,VWS V13.01,2013-02-17 20:50:00,
2013-02-17 15:55:00,60.0,25.0,30.23,NW,306,5.0,10.0,26,0.00,,CLR,0.00,VWS V13.01,2013-02-17 20:55:00,
2013-02-17 16:00:00,60.6,26.5,30.23,NW,311,0.0,10.0,27,0.00,,CLR,0.00,VWS V13.01,2013-02-17 21:00:00,
2013-02-17 16:05:00,60.5,25.5,30.24,NNW,344,0.0,8.0,26,0.00,,CLR,0.00,VWS V13.01,2013-02-17 21:05:00,
2013-02-17 16:10:00,60.5,26.4,30.23,NNW,333,0.0,8.0,27,0.00,,CLR,0.00,VWS V13.01,2013-02-17 21:10:00,
2013-02-17 16:15:00,60.3,25.3,30.23,NNW,333,0.0,8.0,26,0.00,,CLR,0.00,VWS V13.01,2013-02-17 21:15:00,
2013-02-17 16:20:00,60.0,26.0,30.23,North,5,3.0,8.0,27,0.00,,CLR,0.00,VWS V13.01,2013-02-17 21:20:00,
2013-02-17 16:25:00,60.3,26.2,30.23,North,360,0.0,8.0,27,0.00,,CLR,0.00,VWS V13.01,2013-02-17 21:25:00,
2013-02-17 16:30:00,59.9,25.0,30.23,NW,323,1.0,8.0,26,0.00,,CLR,0.00,VWS V13.01,2013-02-17 21:30:00,
2013-02-17 16:35:00,59.7,25.7,30.23,NNW,330,1.0,2.0,27,0.00,,CLR,0.00,VWS V13.01,2013-02-17 21:35:00,
2013-02-17 16:40:00,59.5,25.5,30.23,NNE,26,2.0,2.0,27,0.00,,CLR,0.00,VWS V13.01,2013-02-17 21:40:00,
2013-02-17 16:45:00,59.3,23.5,30.23,North,5,1.0,7.0,25,0.00,,CLR,0.00,VWS V13.01,2013-02-17 21:45:00,
2013-02-17 16:50:00,59.2,23.4,30.24,North,5,0.0,7.0,25,0.00,,CLR,0.00,VWS V13.01,2013-02-17 21:50:00,
2013-02-17 16:55:00,58.7,23.0,30.24,NNE,18,0.0,10.0,25,0.00,,CLR,0.00,VWS V13.01,2013-02-17 21:55:00,
2013-02-17 17:00:00,58.7,23.0,30.24,NNE,13,0.0,10.0,25,0.00,,CLR,0.00,VWS V13.01,2013-02-17 22:00:00,
2013-02-17 17:05:00,58.8,24.9,30.24,NNE,12,0.0,1.0,27,0.00,,CLR,0.00,VWS V13.01,2013-02-17 22:05:00,
2013-02-17 17:10:00,58.7,23.9,30.24,North,5,0.0,5.0,26,0.00,,CLR,0.00,VWS V13.01,2013-02-17 22:10:00,
2013-02-17 17:15:00,58.5,23.8,30.24,North,360,1.0,6.0,26,0.00,,CLR,0.00,VWS V13.01,2013-02-17 22:15:00,
2013-02-17 17:20:00,58.3,23.6,30.24,North,360,1.0,6.0,26,0.00,,CLR,0.00,VWS V13.01,2013-02-17 22:20:00,
2013-02-17 17:25:00,58.3,24.5,30.24,North,355,0.0,6.0,27,0.00,,CLR,0.00,VWS V13.01,2013-02-17 22:25:00,
2013-02-17 17:30:00,58.1,24.3,30.24,NNE,13,0.0,7.0,27,0.00,,CLR,0.00,VWS V13.01,2013-02-17 22:30:00,
2013-02-17 17:35:00,57.7,24.0,30.24,North,10,0.0,1.0,27,0.00,,CLR,0.00,VWS V13.01,2013-02-17 22:35:00,
2013-02-17 17:40:00,57.5,24.7,30.24,North,9,0.0,1.0,28,0.00,,CLR,0.00,VWS V13.01,2013-02-17 22:40:00,
2013-02-17 17:45:00,57.2,25.2,30.24,North,5,0.0,1.0,29,0.00,,CLR,0.00,VWS V13.01,2013-02-17 22:45:00,
2013-02-17 17:50:00,56.9,25.0,30.25,North,9,0.0,1.0,29,0.00,,CLR,0.00,VWS V13.01,2013-02-17 22:50:00,
2013-02-17 17:55:00,56.7,24.8,30.25,NW,305,2.0,7.0,29,0.00,,CLR,0.00,VWS V13.01,2013-02-17 22:55:00,
2013-02-17 18:00:00,56.5,23.8,30.25,NW,305,0.0,7.0,28,0.00,,CLR,0.00,VWS V13.01,2013-02-17 23:00:00,
2013-02-17 18:05:00,56.2,24.4,30.25,NW,307,1.0,6.0,29,0.00,,CLR,0.00,VWS V13.01,2013-02-17 23:05:00,
2013-02-17 18:10:00,55.9,24.9,30.25,NW,308,1.0,6.0,30,0.00,,CLR,0.00,VWS V13.01,2013-02-17 23:10:00,
2013-02-17 18:15:00,55.7,24.8,30.25,NW,308,1.0,6.0,30,0.00,,CLR,0.00,VWS V13.01,2013-02-17 23:15:00,
2013-02-17 18:20:00,55.3,25.2,30.25,NW,319,0.0,6.0,31,0.00,,CLR,0.00,VWS V13.01,2013-02-17 23:20:00,
2013-02-17 18:25:00,55.1,25.8,30.25,NW,319,1.0,6.0,32,0.00,,CLR,0.00,VWS V13.01,2013-02-17 23:25:00,
2013-02-17 18:30:00,54.9,26.4,30.25,NW,319,0.0,6.0,33,0.00,,CLR,0.00,VWS V13.01,2013-02-17 23:30:00,
2013-02-17 18:35:00,54.7,26.2,30.25,NW,319,0.0,2.0,33,0.00,,CLR,0.00,VWS V13.01,2013-02-17 23:35:00,
2013-02-17 18:40:00,54.4,25.9,30.26,NW,319,0.0,2.0,33,0.00,,CLR,0.00,VWS V13.01,2013-02-17 23:40:00,
2013-02-17 18:45:00,54.2,26.5,30.26,NW,319,1.0,3.0,34,0.00,,CLR,0.00,VWS V13.01,2013-02-17 23:45:00,
2013-02-17 18:50:00,54.0,27.0,30.26,NW,319,0.0,3.0,35,0.00,,CLR,0.00,VWS V13.01,2013-02-17 23:50:00,
2013-02-17 18:55:00,53.7,27.4,30.26,NW,319,0.0,3.0,36,0.00,,CLR,0.00,VWS V13.01,2013-02-17 23:55:00,
2013-02-17 19:00:00,53.6,28.0,30.27,NW,319,0.0,3.0,37,0.00,,CLR,0.00,VWS V13.01,2013-02-18 00:00:00,
2013-02-17 19:05:00,53.4,28.5,30.27,NW,319,0.0,2.0,38,0.00,,CLR,0.00,VWS V13.01,2013-02-18 00:05:00,
2013-02-17 19:10:00,53.2,28.9,30.27,NW,320,2.0,4.0,39,0.00,,CLR,0.00,VWS V13.01,2013-02-18 00:10:00,
2013-02-17 19:15:00,52.9,29.2,30.27,NNW,336,4.0,7.0,40,0.00,,CLR,0.00,VWS V13.01,2013-02-18 00:15:00,
2013-02-17 19:20:00,52.7,29.1,30.27,NNW,338,0.0,7.0,40,0.00,,CLR,0.00,VWS V13.01,2013-02-18 00:20:00,
2013-02-17 19:25:00,52.6,29.6,30.27,NNW,338,1.0,7.0,41,0.00,,CLR,0.00,VWS V13.01,2013-02-18 00:25:00,
2013-02-17 19:30:00,52.4,30.0,30.27,NNW,338,3.0,7.0,42,0.00,,CLR,0.00,VWS V13.01,2013-02-18 00:30:00,
2013-02-17 19:35:00,52.2,30.4,30.27,NNW,338,0.0,3.0,43,0.00,,CLR,0.00,VWS V13.01,2013-02-18 00:35:00,
2013-02-17 19:40:00,52.0,30.2,30.27,NNW,338,0.0,3.0,43,0.00,,CLR,0.00,VWS V13.01,2013-02-18 00:40:00,
2013-02-17 19:45:00,51.9,30.7,30.27,NNW,341,2.0,5.0,44,0.00,,CLR,0.00,VWS V13.01,2013-02-18 00:45:00,
2013-02-17 19:50:00,51.7,30.5,30.28,NNW,344,0.0,5.0,44,0.00,,CLR,0.00,VWS V13.01,2013-02-18 00:50:00,
2013-02-17 19:55:00,51.6,31.5,30.28,NNW,344,1.0,5.0,46,0.00,,CLR,0.00,VWS V13.01,2013-02-18 00:55:00,
2013-02-17 20:00:00,51.4,30.8,30.28,North,5,4.0,8.0,45,0.00,,CLR,0.00,VWS V13.01,2013-02-18 01:00:00,
2013-02-17 20:05:00,51.3,30.7,30.28,NNE,13,4.0,6.0,45,0.00,,CLR,0.00,VWS V13.01,2013-02-18 01:05:00,
2013-02-17 20:10:00,51.2,30.6,30.28,NNE,15,2.0,6.0,45,0.00,,CLR,0.00,VWS V13.01,2013-02-18 01:10:00,
2013-02-17 20:15:00,51.1,31.1,30.28,NNE,17,3.0,6.0,46,0.00,,CLR,0.00,VWS V13.01,2013-02-18 01:15:00,
2013-02-17 20:20:00,51.0,31.0,30.28,NNE,15,2.0,8.0,46,0.00,,CLR,0.00,VWS V13.01,2013-02-18 01:20:00,
2013-02-17 20:25:00,50.9,30.3,30.29,North,5,4.0,9.0,45,0.00,,CLR,0.00,VWS V13.01,2013-02-18 01:25:00,
2013-02-17 20:30:00,50.9,30.9,30.29,North,9,2.0,9.0,46,0.00,,CLR,0.00,VWS V13.01,2013-02-18 01:30:00,
2013-02-17 20:35:00,50.8,30.8,30.29,North,5,1.0,5.0,46,0.00,,CLR,0.00,VWS V13.01,2013-02-18 01:35:00,
2013-02-17 20:40:00,50.7,31.2,30.29,North,5,1.0,5.0,47,0.00,,CLR,0.00,VWS V13.01,2013-02-18 01:40:00,
2013-02-17 20:45:00,50.6,31.1,30.29,North,10,4.0,7.0,47,0.00,,CLR,0.00,VWS V13.01,2013-02-18 01:45:00,
2013-02-17 20:50:00,50.5,31.0,30.29,North,10,3.0,7.0,47,0.00,,CLR,0.00,VWS V13.01,2013-02-18 01:50:00,
2013-02-17 20:55:00,50.5,31.6,30.29,North,9,3.0,7.0,48,0.00,,CLR,0.00,VWS V13.01,2013-02-18 01:55:00,
2013-02-17 21:00:00,50.4,31.5,30.29,North,9,1.0,7.0,48,0.00,,CLR,0.00,VWS V13.01,2013-02-18 02:00:00,
2013-02-17 21:05:00,50.4,32.0,30.29,North,11,3.0,6.0,49,0.00,,CLR,0.00,VWS V13.01,2013-02-18 02:05:00,
2013-02-17 21:10:00,50.3,31.9,30.29,North,9,4.0,7.0,49,0.00,,CLR,0.00,VWS V13.01,2013-02-18 02:10:00,
2013-02-17 21:15:00,50.3,32.4,30.29,North,10,2.0,7.0,50,0.00,,CLR,0.00,VWS V13.01,2013-02-18 02:15:00,
2013-02-17 21:20:00,50.2,32.3,30.29,North,9,0.0,7.0,50,0.00,,CLR,0.00,VWS V13.01,2013-02-18 02:20:00,
2013-02-17 21:25:00,50.1,32.2,30.29,North,10,1.0,7.0,50,0.00,,CLR,0.00,VWS V13.01,2013-02-18 02:25:00,
2013-02-17 21:30:00,50.1,32.2,30.29,North,9,0.0,7.0,50,0.00,,CLR,0.00,VWS V13.01,2013-02-18 02:30:00,
2013-02-17 21:35:00,50.0,32.1,30.29,North,9,0.0,3.0,50,0.00,,CLR,0.00,VWS V13.01,2013-02-18 02:35:00,
2013-02-17 21:40:00,49.8,31.9,30.29,North,9,2.0,4.0,50,0.00,,CLR,0.00,VWS V13.01,2013-02-18 02:40:00,
2013-02-17 21:45:00,49.7,31.8,30.29,North,10,0.0,5.0,50,0.00,,CLR,0.00,VWS V13.01,2013-02-18 02:45:00,
2013-02-17 21:50:00,49.7,31.3,30.30,North,10,0.0,5.0,49,0.00,,CLR,0.00,VWS V13.01,2013-02-18 02:50:00,
2013-02-17 21:55:00,49.6,30.7,30.29,North,9,1.0,5.0,48,0.00,,CLR,0.00,VWS V13.01,2013-02-18 02:55:00,
2013-02-17 22:00:00,49.5,30.1,30.30,North,9,2.0,6.0,47,0.00,,CLR,0.00,VWS V13.01,2013-02-18 03:00:00,
2013-02-17 22:05:00,49.5,29.6,30.30,North,9,3.0,4.0,46,0.00,,CLR,0.00,VWS V13.01,2013-02-18 03:05:00,
2013-02-17 22:10:00,49.5,29.6,30.30,North,9,2.0,4.0,46,0.00,,CLR,0.00,VWS V13.01,2013-02-18 03:10:00,
2013-02-17 22:15:00,49.4,29.0,30.30,North,9,0.0,4.0,45,0.00,,CLR,0.00,VWS V13.01,2013-02-18 03:15:00,
2013-02-17 22:20:00,49.4,28.4,30.30,North,9,4.0,5.0,44,0.00,,CLR,0.00,VWS V13.01,2013-02-18 03:20:00,
2013-02-17 22:25:00,49.4,27.9,30.30,North,9,5.0,5.0,43,0.00,,CLR,0.00,VWS V13.01,2013-02-18 03:25:00,
2013-02-17 22:30:00,49.4,27.3,30.30,North,9,2.0,5.0,42,0.00,,CLR,0.00,VWS V13.01,2013-02-18 03:30:00,
2013-02-17 22:35:00,49.3,27.2,30.30,North,5,3.0,4.0,42,0.00,,CLR,0.00,VWS V13.01,2013-02-18 03:35:00,
2013-02-17 22:40:00,49.3,27.2,30.30,North,5,3.0,4.0,42,0.00,,CLR,0.00,VWS V13.01,2013-02-18 03:40:00,
2013-02-17 22:45:00,49.4,27.3,30.30,North,5,1.0,5.0,42,0.00,,CLR,0.00,VWS V13.01,2013-02-18 03:45:00,
2013-02-17 22:50:00,49.3,27.2,30.30,North,360,0.0,6.0,42,0.00,,CLR,0.00,VWS V13.01,2013-02-18 03:50:00,
2013-02-17 22:55:00,49.3,27.2,30.30,North,360,0.0,6.0,42,0.00,,CLR,0.00,VWS V13.01,2013-02-18 03:55:00,
2013-02-17 23:00:00,49.2,27.1,30.30,North,360,1.0,6.0,42,0.00,,CLR,0.00,VWS V13.01,2013-02-18 04:00:00,
2013-02-17 23:05:00,49.2,27.1,30.30,North,360,1.0,5.0,42,0.00,,CLR,0.00,VWS V13.01,2013-02-18 04:05:00,
2013-02-17 23:10:00,49.2,27.1,30.30,North,360,6.0,7.0,42,0.00,,CLR,0.00,VWS V13.01,2013-02-18 04:10:00,
2013-02-17 23:15:00,49.1,27.0,30.30,North,355,3.0,7.0,42,0.00,,CLR,0.00,VWS V13.01,2013-02-18 04:15:00,
2013-02-17 23:20:00,49.1,27.0,30.30,North,355,2.0,7.0,42,0.00,,CLR,0.00,VWS V13.01,2013-02-18 04:20:00,
2013-02-17 23:25:00,49.0,26.3,30.30,North,355,2.0,7.0,41,0.00,,CLR,0.00,VWS V13.01,2013-02-18 04:25:00,
2013-02-17 23:30:00,48.9,25.7,30.30,North,355,1.0,7.0,40,0.00,,CLR,0.00,VWS V13.01,2013-02-18 04:30:00,
2013-02-17 23:35:00,48.7,24.2,30.30,North,355,4.0,6.0,38,0.00,,CLR,0.00,VWS V13.01,2013-02-18 04:35:00,
2013-02-17 23:40:00,48.5,23.4,30.29,North,355,2.0,6.0,37,0.00,,CLR,0.00,VWS V13.01,2013-02-18 04:40:00,
2013-02-17 23:45:00,48.4,22.7,30.29,North,355,4.0,6.0,36,0.00,,CLR,0.00,VWS V13.01,2013-02-18 04:45:00,
2013-02-17 23:50:00,48.3,21.9,30.29,North,355,1.0,6.0,35,0.00,,CLR,0.00,VWS V13.01,2013-02-18 04:50:00,
2013-02-17 23:55:00,48.2,21.2,30.29,North,351,2.0,6.0,34,0.00,,CLR,0.00,VWS V13.01,2013-02-18 04:55:00,